Regional Weather Roundup
Issued by NWS

Home | Current Version | Previous Version | Graphics & Text | Print | Product List | Glossary On
Versions: 1 2 3 4 5 6 7 8 9 10 11 12 13 14 15 16 17 18 19 20 21 22 23 24 25 26 27 28 29 30 31 32 33 34 35 36 37 38 39 40 41 42 43 44 45 46 47 48 49 50
000
ASUS43 KMKX 181321
RWRWI

WISCONSIN REGIONAL WEATHER ROUNDUP
NATIONAL WEATHER SERVICE MILWAUKEE/SULLIVAN WI
800 AM CDT THU SEP 18 2014

NOTE: "FAIR" INDICATES FEW OR NO CLOUDS BELOW 12,000 FEET WITH NO
SIGNIFICANT WEATHER AND/OR OBSTRUCTIONS TO VISIBILITY.

WIZ001-002-006>008-014>016-023>028-181400-
NORTHWEST WISCONSIN

CITY           SKY/WX    TMP DP  RH WIND       PRES   REMARKS
SUPERIOR ARPT  CLOUDY    44  38  82 E7        30.16S
ASHLAND        CLOUDY    42  37  82 NE6       30.17S
HAYWARD        CLOUDY    45  44  97 E3        30.14R
SIREN          CLOUDY    46  44  91 E3        30.12S
RICE LAKE      FOG       48  47  95 E6        30.13S VSB 1
LADYSMITH      CLOUDY    48  46  93 E6        30.15S
EAU CLAIRE     CLOUDY    47  45  93 E8        30.12R FOG
MENOMONIE      CLOUDY    50  48  94 E8        30.11R FOG
NEW RICHMOND   FOG       49  49 100 E7        30.10S VSB 3/4
OSCEOLA        CLOUDY    49  49 100 E8        30.13S FOG
$$

WIZ003>005-009-010-017-018-181400-
NORTH CENTRAL WISCONSIN

CITY           SKY/WX    TMP DP  RH WIND       PRES   REMARKS
WOODRUFF       CLOUDY    42  40  89 SE6       30.15R
RHINELANDER    CLOUDY    39  38  96 E8        30.17R FOG     WCI  33
EAGLE RIVER    CLOUDY    37  37  97 SE8       30.16S WCI  31
LAND O LAKES   CLOUDY    38  36  91 SE6       30.18R WCI  34
PHILLIPS       CLOUDY    44  42  93 SE5       30.14S FOG
TOMAHAWK       CLOUDY    44  41  90 SE3       30.16R
MEDFORD        CLOUDY    44  43  97 E7        30.14R FOG
MERRILL        CLOUDY    44  43  96 SE6       30.16R
$$

WIZ029-030-035-036-043>047-181400-
CENTRAL WISCONSIN

CITY           SKY/WX    TMP DP  RH WIND       PRES   REMARKS
WAUSAU         CLOUDY    42  40  92 SE9       30.15S
MOSINEE        CLOUDY    43  43 100 E10       30.17R
MARSHFIELD     CLOUDY    45  43  93 SE10      30.15R
STEVENS POINT  CLOUDY    41  39  92 E8        30.17R
WAUPACA        CLOUDY    46  43  90 NE8       30.18S
WAUTOMA        CLOUDY    46  45  93 NE7       30.18R FOG
WISC RAPIDS    CLOUDY    46  43  89 E8        30.17R
CAMP DOUGLAS   CLOUDY    48  48 100 E9        30.15R
$$

WIZ011>013-019>022-031-037>040-048>050-181400-
NORTHEAST WISCONSIN

CITY           SKY/WX    TMP DP  RH WIND       PRES   REMARKS
ANTIGO         CLOUDY    38  37  95 SE8       30.17S WCI  32
STURGEON BAY   CLOUDY    46  37  71 N9        30.18S
GREEN BAY      CLOUDY    45  38  76 N8        30.18S
MANITOWOC      CLOUDY    46  41  82 N7        30.17S
APPLETON       CLOUDY    45  37  76 NE10      30.18R
CLINTONVILLE   CLOUDY    43  36  75 NE6       30.20R
OSHKOSH        CLOUDY    48  44  86 NE7       30.17R
$$

WIZ032>034-041-042-053>061-181400-
SOUTHWEST WISCONSIN

CITY           SKY/WX    TMP DP  RH WIND       PRES   REMARKS
LA CROSSE      CLOUDY    52  50  93 E5        30.12R FOG
SPARTA         CLOUDY    50  49  98 E9        30.14R FOG
VIROQUA        CLOUDY    47  47 100 E7        30.13R VSB<1/4
BOSCOBEL       CLOUDY    51  49  92 E6        30.14R FOG
PRAIRIE DU CHI FOG       49  48  95 CALM      30.12R VSB 3/4
PLATTEVILLE    FAIR      51  48  92 E12       30.12R
$$

WIZ056-057-062-063-064-067-068-181400-
SOUTH CENTRAL WISCONSIN

CITY           SKY/WX    TMP DP  RH WIND       PRES   REMARKS
BARABOO/DELLS  CLOUDY    49  47  95 E6        30.15R FOG
LONE ROCK      CLOUDY    55  51  86 E9        30.14R FOG
WATERTOWN      CLOUDY    49  49 100 E5        30.15R
MADISON        CLOUDY    50  48  93 E8        30.15R FOG
MIDDLETON      CLOUDY    52  52 100 E8        30.15R VSB 1/2
MONROE         FOG       46  46 100 NE9       30.13R VSB<1/4
JANESVILLE     FOG       52  48  87 E6        30.13R VSB 1
$$

WIZ051-052-058>065-066-070>072-181400-
SOUTHEAST WISCONSIN

CITY           SKY/WX    TMP DP  RH WIND       PRES   REMARKS
MILWAUKEE      CLOUDY    53  48  83 N10       30.14R
WAUKESHA       CLOUDY    48  46  93 NE12      30.15R
MILWAUKEE/TIMM CLOUDY    50  46  87 N7        30.15R
RACINE         CLOUDY    55  52  89 N12       30.14R
BURLINGTON     CLOUDY    51  50  97 NE6       30.14R
KENOSHA        PTSUNNY   54  53  97 N5        30.13R
FOND DU LAC    CLOUDY    47  43  86 E7        30.17R
SHEBOYGAN      CLOUDY    47  43  86 N12       30.16R
WEST BEND      CLOUDY    46  43  87 NE7       30.16R
JUNEAU         CLOUDY    46  45  95 NE9       30.17R
$$

LSZ147-162-181400-
LAKE SUPERIOR

STATION/POSITION TIME  TEMP    WIND        PRES    WAVE
                       AIR SEA DIR/SP/G            HT/PER
                 (UTC) (F)     (DEG/KT/KT) (MB)    (FT/S)
W MID LAKE BUOY  1250   44 46  110/ 10/ 16 1022.8S   2/ 5
DEVILS ISLAND    1300   44     100/ 12/ 14 1022.7R
PORT WING        1200   43      60/  8/ 11 1021.7
SAXON HARBOR     1200   43      70/  4/  6 1021.7
$$

LMZ867-665-643>646-181400-
LAKE MICHIGAN

STATION/POSITION TIME  TEMP    WIND        PRES    WAVE
                       AIR SEA DIR/SP/G            HT/PER
                 (UTC) (F)     (DEG/KT/KT) (MB)    (FT/S)
N MID LAKE BUOY  1250   48 57   40/ 12/ 14 1022.2R   2/ 4
NORTHPORT PIER   1200   46      20/  9/ 12 1022.0S
SISTER BAY       1042          120/  4/  9   N/A
KEWAUNEE LAKESHO 1300   46     360/  4/  7 1020.8R
SHEBOYGAN LAKESH 1300   47 48  350/ 14/ 16 1021.8R
PORT WASHINGTON  1200   51     360/  7/ 11 1021.0R
ATWATER BUOY     1300   53     360/ 17/ 21 1021.7R
MILWAUKEE LAKESH 1300   52     350/ 13/ 17   N/A
S MID LAKE BUOY  1250   61 63  310/  2/  4 1019.5R   0
KENOSHA   LAKESH 1300   56     360/ 10/ 12 1020.0R
$$

TC  - TEMPERATURE IN CELSIUS
VSB - VISIBILITY IN STATUTE MILES
WCI - WIND CHILL INDEX
HX  - HEAT INDEX




USA.gov is the U.S. government's official web portal to all federal, state and local government web resources and services.